Regional Weather Roundup
Issued by NWS

Home | Current Version | Previous Version | Graphics & Text | Print | Product List | Glossary On
Versions: 1 2 3 4 5 6 7 8 9 10 11 12 13 14 15 16 17 18 19 20 21 22 23 24 25 26 27 28 29 30 31 32 33 34 35 36 37 38 39 40 41 42 43 44 45 46 47 48 49 50
000
ASUS43 KMPX 262201
RWRMN
WEATHER ROUNDUP FOR MINNESOTA
NATIONAL WEATHER SERVICE TWIN CITIES/CHANHASSEN MN
400 PM CST SUN FEB 26 2017


NOTE: "FAIR" INDICATES FEW OR NO CLOUDS BELOW 12,000 FEET WITH NO
SIGNIFICANT WEATHER AND/OR OBSTRUCTIONS TO VISIBILITY. N/A MEANS
CURRENT SKY AND/OR WEATHER CONDITIONS ARE NOT AVAILABLE.

MNZ060>063-068>070-262300-
   Twin Cities Metro

CITY           SKY/WX    TMP DP  RH WIND       PRES   REMARKS
TWIN CITIES    MOSUNNY   36  11  35 W14       29.85R
ST PAUL        SUNNY     36  10  34 W17       29.86R
CRYSTAL        SUNNY     34   8  33 W9        29.84R WCI  27
BLAINE         MOSUNNY   36  10  35 MISG      29.84R
LAKEVILLE      SUNNY     34  19  55 W18       29.85R WCI  23
EDEN PRAIRIE   SUNNY     36  12  37 W13       29.85R
SOUTH ST PAUL  SUNNY     37  10  33 W14G23    29.85R
LAKE ELMO      FAIR      36  14  41 W16       29.85R
$$
MNZ001>005-007-008-013>017-022>024-027-028-262300-
   Northwest Minnesota

CITY           SKY/WX    TMP DP  RH WIND       PRES   REMARKS
BEMIDJI        SUNNY     20   4  50 W10       29.81R WCI   9
HALLOCK        SUNNY     19  10  68 SW10      29.83S WCI   8
ROSEAU         SUNNY     18   7  62 W12       29.81R WCI   5
WARROAD        SUNNY     18   7  62 W12       29.80R WCI   5
THIEF RVR FALL SUNNY     15   6  67 SW12      29.86  WCI   2
CROOKSTON      SUNNY     18   9  68 W9        29.88F WCI   6
FOSSTON        SUNNY     19   9  63 SW9       29.85R WCI   9
DETROIT LAKES  SUNNY     21  10  63 W7        29.86R WCI  13
MOORHEAD       SUNNY     18   9  68 CALM      29.90S
PARK RAPIDS    SUNNY     23   3  42 W9        29.81R WCI  13
MAHNOMEN       FAIR      19   9  65 SW9       29.85S WCI   7
$$
MNZ006-009>011-018-025>026-262300-
   North Central Minnesota

CITY           SKY/WX    TMP DP  RH WIND       PRES   REMARKS
BAUDETTE       SUNNY     19   2  47 NW8       29.77R WCI   9
FLAG ISLAND    SUNNY     19   1  45 W13       29.75S WCI   7
INTL FALLS     SUNNY     19   1  45 W8        29.78R WCI   9
WASKISH        SUNNY     18   7  62 SW10      29.81R WCI   6
BIG FORK       SUNNY     23  -2  33 W8        29.79R WCI  14
LONGVILLE      SUNNY     23   1  39 NW3       29.82R
GRAND RAPIDS   SUNNY     23   2  40 W10       29.82R WCI  12
CRANE LAKE     SUNNY     18   0  45 NW5G16    29.80R WCI  11
ORR            SUNNY     19  -2  38 CALM      29.75R
COOK           SUNNY     19   0  42 W13       29.78R WCI   7
WALKER         FAIR      22   0  38 W7        29.81R WCI  13
$$
MNZ012-019>021-037-262300-
   Northeast Minnesota

CITY           SKY/WX    TMP DP  RH WIND       PRES   REMARKS
DULUTH         SUNNY     21   3  45 W13G20    29.79R WCI   9
ELY            SUNNY     18  -2  41 W10G21    29.75R WCI   6
HIBBING        SUNNY     19   2  47 NW15      29.79R WCI   5
EVELETH        SUNNY     20  -5  32 W10G18    29.79R WCI   9
DULUTH HARBOR  SUNNY     25   7  46 W16       29.85R WCI  12
TWO HARBORS    SUNNY     27   7  43 W7G21     29.77R WCI  19
SILVER BAY     SUNNY     25   0  33 W10G17    29.76R WCI  15
GRAND MARAIS     N/A     24   2  38 W12G17    29.77R WCI  13
G MARAIS ARPRT SUNNY     16  -6  38 W8G20     29.67R WCI   5
$$
MNZ029>031-032-039>041-046>048-054>057-064-262300-
   West Central Minnesota

CITY           SKY/WX    TMP DP  RH WIND       PRES   REMARKS
FERGUS FALLS   MOSUNNY   16  10  79 NW3       29.93R
WHEATON        CLOUDY    21  12  68 CALM      29.91R
MORRIS         PTSUNNY   21  12  68 NW8       29.88R WCI  12
ALEXANDRIA     SUNNY     23   8  52 NW8       29.85R WCI  14
ELBOW LAKE     FAIR      16   8  70 NW6       29.89R WCI   7
WADENA         SUNNY     19   9  63 W7        29.84R WCI  10
GLENWOOD       MOSUNNY   27  10  50 W8        29.86R WCI  18
APPLETON       PTSUNNY   28  14  54 NW5       29.88S WCI  23
BENSON         PTSUNNY   28   9  43 N6        29.90R WCI  22
ORTONVILLE       N/A     27  12  54 CALM      29.86F
MADISON        SUNNY     34  19  55 N7        29.87R WCI  28
WILLMAR        FAIR      30  19  64 W9        29.89R WCI  22
$$
MNZ033>034-036-042>043-049>051-058-059-262300-
   Central Minnesota

CITY           SKY/WX    TMP DP  RH WIND       PRES   REMARKS
ST CLOUD       SUNNY     31  10  41 NW12      29.85R WCI  22
SAUK CENTRE    FAIR      27   8  44 W7        29.85R WCI  19
PAYNESVILLE    SUNNY     30  13  51 W10G16    29.86R WCI  21
AITKIN         SUNNY     27  -8  22 W6        29.82R WCI  20
PINE RIVER     SUNNY     23   3  42 CALM      29.86R
BRAINERD       SUNNY     24   2  38 W8        29.84R WCI  15
STAPLES        SUNNY     19   9  63 W9        29.85R WCI   9
LONG PRAIRIE   FAIR      27   5  39 W8        29.85R WCI  18
LITTLE FALLS   SUNNY     28   3  34 NW7       29.85R WCI  21
LITCHFIELD     PTSUNNY   30  12  47 W13G18    29.87R WCI  20
BUFFALO        SUNNY     32  11  41 W13       29.87R WCI  22
MAPLE LAKE     SUNNY     33  12  43 W9G18     29.86R WCI  25
HUTCHINSON     SUNNY     33  20  58 W14       29.88R WCI  23
$$
MNZ037-044-045-052-053-262300-
   East Central Minnesota

CITY           SKY/WX    TMP DP  RH WIND       PRES   REMARKS
PRINCETON      SUNNY     34  10  37 W12       29.85R WCI  25
MORA           SUNNY     28   5  37 N8        29.86R WCI  20
CAMBRIDGE      SUNNY     34  16  47 W8G16     29.83R WCI  27
RUSH CITY      MOSUNNY   30  12  47 NW8       29.85R WCI  23
MOOSE LAKE     SUNNY     27   3  36 CALM      29.81R
HINCKLEY       FAIR      30   5  34 NW7       29.84R WCI  23
CLOQUET        SUNNY     21   0  39 NW9G16    29.80R WCI  11
MCGREGOR       SUNNY     25   3  39 NW6       29.82R WCI  18
$$
MNZ071>073-080-081-089-090-097-098-262300-
   Southwest Minnesota

CITY           SKY/WX    TMP DP  RH WIND       PRES   REMARKS
MONTEVIDEO     SUNNY     32  18  55 N6        29.89S WCI  26
GRANITE FALLS  SUNNY     34  19  55 NW10      29.88S WCI  26
CANBY          MOSUNNY   33  22  62 CALM      29.87R
MARSHALL       SUNNY     35  22  58 E6        29.85F WCI  30
REDWOOD FALLS  SUNNY     35  14  42 NW8       29.86S WCI  29
OLIVIA         SUNNY     32  19  59 NW9       29.87R WCI  24
PIPESTONE      MOSUNNY   37  25  60 SW13      29.83R
WINDOM         PTSUNNY   37  27  65 SW9       29.85R
WORTHINGTON    SUNNY     34  26  72 SW14      29.86S WCI  25
JACKSON        SUNNY     34  27  75 W13       29.87S WCI  25
TRACY          SUNNY     37  25  63 N3        29.84S
SLAYTON        PTSUNNY   37  26  65 SW14      29.84S
$$
MNZ065>067-074>077-082>085-091>093-262300-
   South Central Minnesota

CITY           SKY/WX    TMP DP  RH WIND       PRES   REMARKS
MANKATO          N/A     36  23  59 NW15      29.87R
NEW ULM        SUNNY     36  18  48 NW9       29.87R
ST JAMES       SUNNY     37  27  65 CALM      29.88R
FAIRMONT       SUNNY     34  26  72 SW9       29.88R WCI  27
GLENCOE        SUNNY     34  21  59 W15       29.86R WCI  24
FARIBAULT      MOSUNNY   36  21  55 W13       29.87R
OWATONNA       PTSUNNY   34  25  69 SW10      29.86R WCI  26
WASECA         SUNNY     32  27  80 SW10      29.88R WCI  24
ALBERT LEA     SUNNY     32  25  74 SW8       29.88R WCI  25
$$
MNZ078>079-086>088-094>096-262300-
   Southeast Minnesota

CITY           SKY/WX    TMP DP  RH WIND       PRES   REMARKS
ROCHESTER      SUNNY     29  23  78 SW12      29.86R WCI  19
RED WING       SUNNY     37  16  41 W15G25    29.84R
STANTON        SUNNY     35  21  56 W13       29.84R WCI  27
WINONA         SUNNY     36  25  64 W8        29.88R
AUSTIN         SUNNY     30  23  74 SW9       29.88R WCI  22
PRESTON        SUNNY     31  22  69 W10       29.88R WCI  22
$$
ABBREVIATIONS USED IN REMARKS
   TC - TEMPERATURES IN CELSIUS
  WCI - WIND CHILL INDEX
   HX - HEAT INDEX
  VSB - VISIBILITY
$$



USA.gov is the U.S. government's official web portal to all federal, state and local government web resources and services.